Home > Weather > Australia > Adelaide > Past weeks

Flag for Australia Weather past 2 weeks in Adelaide, South Australia, Australia

54 °F

Passing clouds.

Feels Like: 50 °F
Forecast: 53 / 68 °F
Wind: 10 mph from South

Location: Adelaide Airport

Current Time: Dec 2, 2015 at 1:27:04 AM

Latest Report: Dec 2, 2015 at 12:30 AM

Visibility: N/A

Pressure: 30.21 "Hg

Humidity: 54%

Dew point: 37 °F

Location of AdelaideLocation

Historic Weather in Adelaide — Graph


Adelaide temperature yesterday

Maximum temperature yesterday: 66 °F (at 9:30 AM)
Minimum temperature yesterday: 54 °F (at 11:00 PM)
Average temperature yesterday: 61 °F

Past Weeks' High & Low Weather Summary

High100 °F (Nov 18, 4:30 PM)88% (Nov 23, 6:00 AM)30.30 "Hg (Nov 23, 6:00 AM)
Low46 °F (Nov 27, 5:00 AM)7% (Nov 18, 4:30 PM)29.53 "Hg (Nov 25, 1:00 PM)
Average66 °F53%29.97 "Hg
* Reported Nov 16 11:30 PM — Midnight between Dec 1 and Dec 2, Adelaide, Weather by CustomWeather, © 2015

Note: Actual official high and low records may vary slightly from our data, if they occured in-between our weather recording intervals... More about our weather records


Adelaide weather history for previous 24 hours

Time TempWeatherWind HumidityBarometerVisibility
12:00 AM
Wed, Dec 2
54 °FPassing clouds.9 mph54%30.21 "HgN/A
11:30 PM
Tue, Dec 1
54 °FPassing clouds.9 mph58%30.21 "HgN/A
11:00 PM54 °FPassing clouds.10 mph58%30.21 "HgN/A
10:30 PM55 °FPassing clouds.13 mph47%30.21 "HgN/A
10:00 PM57 °FPassing clouds.21 mph44%30.18 "HgN/A
9:30 PM59 °FPassing clouds.17 mph45%30.15 "HgN/A
9:00 PM59 °FPassing clouds.20 mph45%30.15 "HgN/A
8:30 PM59 °FPassing clouds.21 mph39%30.12 "HgN/A
8:00 PM59 °FPassing clouds.21 mph48%30.12 "HgN/A
7:30 PM59 °FScattered showers. Scattered clouds.17 mph51%30.09 "HgN/A
7:00 PM59 °FSprinkles. Scattered clouds.18 mph55%30.09 "HgN/A
6:30 PM63 °FScattered clouds.21 mph37%30.07 "HgN/A
5:30 PM63 °FPassing clouds.24 mph45%30.04 "HgN/A
5:19 PM63 °FPassing clouds.21 mph45%30.04 "HgN/A
4:30 PM64 °FScattered clouds.24 mph43%30.01 "HgN/A
4:00 PM63 °FBroken clouds.22 mph49%30.01 "HgN/A
3:30 PM64 °FScattered showers. Broken clouds.24 mph43%30.01 "HgN/A
3:00 PM61 °FScattered showers. Broken clouds.21 mph55%30.01 "HgN/A
2:30 PM61 °FSprinkles. Broken clouds.28 mph63%29.98 "Hg4 mi
1:30 PM66 °FBroken clouds.25 mph46%29.98 "HgN/A
1:00 PM63 °FScattered showers. Broken clouds.20 mph59%29.98 "HgN/A
12:30 PM64 °FScattered showers. Partly sunny.21 mph56%29.95 "HgN/A
11:30 AM59 °FScattered showers. Broken clouds.10 mph72%29.95 "Hg6 mi
10:30 AM61 °FSprinkles. Broken clouds.23 mph72%29.92 "HgN/A
10:00 AM64 °FSprinkles. Broken clouds.20 mph60%29.92 "HgN/A
9:30 AM66 °FScattered showers. Broken clouds.18 mph52%29.92 "HgN/A
9:00 AM64 °FSprinkles. Broken clouds.23 mph56%29.89 "HgN/A
8:30 AM64 °FScattered showers. Broken clouds.20 mph56%29.89 "HgN/A
7:30 AM63 °FPassing clouds.20 mph56%29.86 "HgN/A
7:00 AM61 °FPassing clouds.20 mph59%29.86 "HgN/A
6:30 AM61 °FPassing clouds.17 mph52%29.83 "HgN/A
6:00 AM61 °FPassing clouds.16 mph52%29.83 "HgN/A
5:30 AM59 °FPassing clouds.18 mph55%29.83 "HgN/A
5:00 AM61 °FPassing clouds.18 mph63%29.83 "HgN/A
4:30 AM61 °FPassing clouds.20 mph63%29.83 "HgN/A
4:00 AM61 °FPartly cloudy.20 mph63%29.80 "HgN/A
3:30 AM61 °FPassing clouds.20 mph72%29.80 "HgN/A
3:00 AM61 °FPassing clouds.17 mph68%29.80 "HgN/A
2:30 AM61 °FPassing clouds.16 mph72%29.80 "HgN/A
2:00 AM61 °FPassing clouds.15 mph72%29.80 "HgN/A
1:30 AM63 °FPassing clouds.14 mph64%29.80 "HgN/A
1:00 AM63 °FPassing clouds.14 mph64%29.80 "HgN/A
Weather by CustomWeather, © 2015

See weather overviewHow to use our weather pages